| time (UTC) | temp C | wind direction | speed KPH | gust KPH | rain 1hr cm | rain 24hr cm | rain mn cm | humidity % | barometer mb |
| 20260901225000 | 18 | 50 | 0.0 | 0.0 | 0.00 | 0.00 | 0.00 | 86 | 1029.7 |
| 20260901224456 | 18 | 50 | 0.0 | 0.0 | 0.00 | 0.00 | 0.00 | 85 | 1029.5 |
| 20260901223952 | 18 | 50 | 0.0 | 0.0 | 0.00 | 0.00 | 0.00 | 85 | 1029.5 |
| 20260901223448 | 18 | 50 | 0.0 | 0.0 | 0.00 | 0.00 | 0.00 | 84 | 1029.7 |
| 20260901222943 | 18 | 50 | 0.0 | 0.0 | 0.00 | 0.00 | 0.00 | 84 | 1029.5 |
| 20260901222439 | 19 | 50 | 1.6 | 1.6 | 0.00 | 0.00 | 0.00 | 83 | 1029.6 |
| 20260901221935 | 19 | 50 | 0.0 | 0.0 | 0.00 | 0.00 | 0.00 | 83 | 1029.5 |
| 20260901221431 | 19 | 50 | 0.0 | 0.0 | 0.00 | 0.00 | 0.00 | 82 | 1029.4 |
| 20260901220931 | 19 | 50 | 0.0 | 0.0 | 0.00 | 0.00 | 0.00 | 81 | 1029.4 |
| 20260901220430 | 19 | 50 | 0.0 | 1.6 | 0.00 | 0.00 | 0.00 | 81 | 1029.4 |
| 20260901215929 | 20 | 50 | 0.0 | 0.0 | 0.00 | 0.00 | 0.00 | 81 | 1029.4 |
| 20260901215427 | 20 | 50 | 0.0 | 0.0 | 0.00 | 0.00 | 0.00 | 80 | 1029.4 |
| 20260901214927 | 20 | 50 | 0.0 | 0.0 | 0.00 | 0.00 | 0.00 | 79 | 1029.3 |
| 20260901214425 | 20 | 50 | 0.0 | 0.0 | 0.00 | 0.00 | 0.00 | 79 | 1029.5 |
| 20260901213920 | 20 | 50 | 0.0 | 0.0 | 0.00 | 0.00 | 0.00 | 79 | 1029.1 |
| 20260901213415 | 20 | 50 | 0.0 | 0.0 | 0.00 | 0.00 | 0.00 | 78 | 1029.2 |
| 20260901212914 | 20 | 50 | 0.0 | 1.6 | 0.00 | 0.00 | 0.00 | 78 | 1029.3 |
| 20260901212410 | 21 | 50 | 1.6 | 1.6 | 0.00 | 0.00 | 0.00 | 77 | 1029.1 |
| 20260901211906 | 21 | 50 | 0.0 | 0.0 | 0.00 | 0.00 | 0.00 | 76 | 1029.0 |
| 20260901211401 | 21 | 50 | 0.0 | 0.0 | 0.00 | 0.00 | 0.00 | 76 | 1028.8 |
| 20260901210857 | 21 | 50 | 0.0 | 1.6 | 0.00 | 0.00 | 0.00 | 76 | 1028.8 |
| 20260901210352 | 21 | 50 | 0.0 | 3.2 | 0.00 | 0.00 | 0.00 | 76 | 1028.8 |
| 20260901205849 | 21 | 50 | 0.0 | 0.0 | 0.00 | 0.00 | 0.00 | 75 | 1028.8 |
| 20260901205343 | 21 | 50 | 0.0 | 1.6 | 0.00 | 0.00 | 0.00 | 73 | 1028.6 |
| 20260901204838 | 22 | 50 | 0.0 | 0.0 | 0.00 | 0.00 | 0.00 | 71 | 1028.6 |
| 20260901204335 | 22 | 50 | 0.0 | 0.0 | 0.00 | 0.00 | 0.00 | 70 | 1028.5 |
| 20260901203834 | 22 | 50 | 0.0 | 1.6 | 0.00 | 0.00 | 0.00 | 68 | 1028.4 |
| 20260901203329 | 22 | 50 | 0.0 | 1.6 | 0.00 | 0.00 | 0.00 | 67 | 1028.5 |
| 20260901202824 | 22 | 50 | 0.0 | 0.0 | 0.00 | 0.00 | 0.00 | 67 | 1028.8 |
| 20260901202319 | 22 | 50 | 0.0 | 0.0 | 0.00 | 0.00 | 0.00 | 63 | 1028.5 |
| 20260901201816 | 22 | 50 | 0.0 | 0.0 | 0.00 | 0.00 | 0.00 | 61 | 1028.4 |
| 20260901201314 | 22 | 50 | 0.0 | 0.0 | 0.00 | 0.00 | 0.00 | 60 | 1028.6 |
| 20260901200809 | 23 | 50 | 0.0 | 0.0 | 0.00 | 0.00 | 0.00 | 59 | 1028.3 |
| 20260901200304 | 23 | 50 | 0.0 | 0.0 | 0.00 | 0.00 | 0.00 | 59 | 1028.4 |
| 20260901195801 | 23 | 50 | 0.0 | 0.0 | 0.00 | 0.00 | 0.00 | 56 | 1028.6 |
| 20260901195255 | 24 | 50 | 0.0 | 0.0 | 0.00 | 0.00 | 0.00 | 54 | 1028.5 |
| 20260901194751 | 25 | 50 | 0.0 | 0.0 | 0.00 | 0.00 | 0.00 | 51 | 1028.5 |
| 20260901194246 | 26 | 50 | 0.0 | 0.0 | 0.00 | 0.00 | 0.00 | 46 | 1028.6 |
| 20260901193742 | 26 | 50 | 0.0 | 0.0 | 0.00 | 0.00 | 0.00 | 48 | 1028.6 |
| 20260901193241 | 24 | 50 | 0.0 | 0.0 | 0.00 | 0.00 | 0.00 | 50 | 1028.7 |
| 20260901192736 | 24 | 50 | 0.0 | 0.0 | 0.00 | 0.00 | 0.00 | 52 | 1028.6 |
| 20260901192231 | 22 | 50 | 0.0 | 0.0 | 0.00 | 0.00 | 0.00 | 55 | 1028.8 |
| 20260901191727 | 23 | 50 | 0.0 | 0.0 | 0.00 | 0.00 | 0.00 | 56 | 1028.7 |
| 20260901191223 | 22 | 50 | 0.0 | 0.0 | 0.00 | 0.00 | 0.00 | 55 | 1028.4 |
| 20260901190718 | 22 | 50 | 0.0 | 0.0 | 0.00 | 0.00 | 0.00 | 58 | 1028.8 |
| 20260901190218 | 22 | 50 | 0.0 | 0.0 | 0.00 | 0.00 | 0.00 | 59 | 1028.9 |
| 20260901185717 | 22 | 50 | 0.0 | 0.0 | 0.00 | 0.00 | 0.00 | 59 | 1028.9 |
| 20260901185215 | 22 | 50 | 0.0 | 0.0 | 0.00 | 0.00 | 0.00 | 56 | 1028.8 |
| 20260901184711 | 22 | 50 | 0.0 | 0.0 | 0.00 | 0.00 | 0.00 | 62 | 1029.0 |
| 20260901184201 | 22 | 50 | 0.0 | 0.0 | 0.00 | 0.00 | 0.00 | 59 | 1028.9 |
| 20260901183656 | 22 | 50 | 0.0 | 0.0 | 0.00 | 0.00 | 0.00 | 58 | 1029.0 |
| 20260901183155 | 22 | 50 | 0.0 | 0.0 | 0.00 | 0.00 | 0.00 | 59 | 1028.9 |
| 20260901182652 | 22 | 50 | 0.0 | 0.0 | 0.00 | 0.00 | 0.00 | 59 | 1028.8 |
| 20260901182150 | 22 | 50 | 0.0 | 0.0 | 0.00 | 0.00 | 0.00 | 61 | 1028.9 |
| 20260901181645 | 22 | 50 | 0.0 | 0.0 | 0.00 | 0.00 | 0.00 | 59 | 1028.9 |
| 20260901181139 | 22 | 50 | 0.0 | 0.0 | 0.00 | 0.00 | 0.00 | 58 | 1028.7 |
| 20260901180634 | 22 | 50 | 0.0 | 0.0 | 0.00 | 0.00 | 0.00 | 58 | 1028.8 |
| 20260901180128 | 22 | 50 | 0.0 | 0.0 | 0.00 | 0.00 | 0.00 | 57 | 1029.0 |
| 20260901175627 | 22 | 50 | 0.0 | 0.0 | 0.00 | 0.00 | 0.00 | 59 | 1028.9 |
| 20260901175122 | 22 | 50 | 0.0 | 0.0 | 0.00 | 0.00 | 0.00 | 56 | 1028.7 |
| 20260901174617 | 22 | 50 | 0.0 | 0.0 | 0.00 | 0.00 | 0.00 | 59 | 1028.8 |
| 20260901174114 | 22 | 50 | 0.0 | 0.0 | 0.00 | 0.00 | 0.00 | 56 | 1028.9 |
| 20260901173613 | 22 | 50 | 0.0 | 0.0 | 0.00 | 0.00 | 0.00 | 59 | 1028.8 |
| 20260901173109 | 22 | 50 | 0.0 | 0.0 | 0.00 | 0.00 | 0.00 | 58 | 1028.9 |
| 20260901172605 | 22 | 50 | 0.0 | 1.6 | 0.00 | 0.00 | 0.00 | 57 | 1028.9 |
| 20260901172103 | 22 | 50 | 0.0 | 0.0 | 0.00 | 0.00 | 0.00 | 61 | 1028.8 |
| 20260901171602 | 21 | 50 | 0.0 | 0.0 | 0.00 | 0.00 | 0.00 | 60 | 1028.7 |
| 20260901171101 | 22 | 50 | 0.0 | 0.0 | 0.00 | 0.00 | 0.00 | 60 | 1028.6 |
| 20260901170555 | 22 | 50 | 0.0 | 0.0 | 0.00 | 0.00 | 0.00 | 60 | 1028.8 |
| 20260901170050 | 22 | 50 | 0.0 | 0.0 | 0.00 | 0.00 | 0.00 | 60 | 1028.8 |
| 20260901165544 | 22 | 50 | 0.0 | 1.6 | 0.00 | 0.00 | 0.00 | 60 | 1028.8 |
| 20260901165040 | 22 | 50 | 0.0 | 0.0 | 0.00 | 0.00 | 0.00 | 61 | 1028.9 |
| 20260901164535 | 21 | 50 | 0.0 | 0.0 | 0.00 | 0.00 | 0.00 | 62 | 1028.9 |
| 20260901164030 | 21 | 50 | 0.0 | 0.0 | 0.00 | 0.00 | 0.00 | 61 | 1028.8 |
| 20260901163526 | 21 | 50 | 0.0 | 0.0 | 0.00 | 0.00 | 0.00 | 65 | 1028.9 |
| 20260901163025 | 20 | 50 | 0.0 | 0.0 | 0.00 | 0.00 | 0.00 | 62 | 1028.9 |
| 20260901162520 | 20 | 50 | 0.0 | 0.0 | 0.00 | 0.00 | 0.00 | 61 | 1029.0 |
| 20260901162019 | 20 | 50 | 0.0 | 1.6 | 0.00 | 0.00 | 0.00 | 61 | 1028.9 |
| 20260901161518 | 20 | 50 | 1.6 | 1.6 | 0.00 | 0.00 | 0.00 | 63 | 1029.0 |
| 20260901161018 | 20 | 50 | 0.0 | 0.0 | 0.00 | 0.00 | 0.00 | 63 | 1029.1 |
| 20260901160515 | 20 | 50 | 0.0 | 0.0 | 0.00 | 0.00 | 0.00 | 70 | 1029.3 |
| 20260901160014 | 20 | 50 | 0.0 | 0.0 | 0.00 | 0.00 | 0.00 | 69 | 1029.1 |
| 20260901155508 | 20 | 50 | 0.0 | 0.0 | 0.00 | 0.00 | 0.00 | 68 | 1029.3 |
| 20260901155004 | 19 | 50 | 0.0 | 0.0 | 0.00 | 0.00 | 0.00 | 69 | 1029.3 |
| 20260901154504 | 20 | 50 | 0.0 | 0.0 | 0.00 | 0.00 | 0.00 | 67 | 1029.3 |
| 20260901153958 | 19 | 50 | 0.0 | 0.0 | 0.00 | 0.00 | 0.00 | 65 | 1029.2 |
| 20260901153453 | 19 | 50 | 0.0 | 0.0 | 0.00 | 0.00 | 0.00 | 71 | 1029.2 |
| 20260901152952 | 19 | 50 | 0.0 | 0.0 | 0.00 | 0.00 | 0.00 | 70 | 1029.3 |
| 20260901152447 | 19 | 50 | 0.0 | 0.0 | 0.00 | 0.00 | 0.00 | 70 | 1029.2 |
| 20260901151947 | 18 | 50 | 0.0 | 0.0 | 0.00 | 0.00 | 0.00 | 69 | 1029.2 |
| 20260901151442 | 19 | 50 | 0.0 | 0.0 | 0.00 | 0.00 | 0.00 | 68 | 1029.2 |
| 20260901150941 | 18 | 50 | 0.0 | 0.0 | 0.00 | 0.00 | 0.00 | 66 | 1029.3 |
| 20260901150439 | 18 | 50 | 0.0 | 0.0 | 0.00 | 0.00 | 0.00 | 69 | 1029.2 |
| 20260901145936 | 18 | 50 | 0.0 | 0.0 | 0.00 | 0.00 | 0.00 | 70 | 1029.2 |
| 20260901145431 | 18 | 50 | 0.0 | 0.0 | 0.00 | 0.00 | 0.00 | 69 | 1028.8 |
| 20260901144926 | 18 | 50 | 0.0 | 0.0 | 0.00 | 0.00 | 0.00 | 69 | 1028.8 |
| 20260901144421 | 18 | 50 | 0.0 | 0.0 | 0.00 | 0.00 | 0.00 | 69 | 1028.7 |
| 20260901143917 | 18 | 50 | 0.0 | 0.0 | 0.00 | 0.00 | 0.00 | 68 | 1028.9 |
| 20260901143413 | 17 | 50 | 0.0 | 0.0 | 0.00 | 0.00 | 0.00 | 70 | 1029.1 |
| 20260901142909 | 17 | 50 | 0.0 | 0.0 | 0.00 | 0.00 | 0.00 | 72 | 1029.1 |
| 20260901142408 | 17 | 50 | 0.0 | 0.0 | 0.00 | 0.00 | 0.00 | 73 | 1029.0 |
| 20260901141903 | 17 | 50 | 0.0 | 1.6 | 0.00 | 0.00 | 0.00 | 75 | 1029.2 |
| 20260901141358 | 17 | 50 | 0.0 | 0.0 | 0.00 | 0.00 | 0.00 | 72 | 1029.2 |
| 20260901140857 | 17 | 50 | 0.0 | 0.0 | 0.00 | 0.00 | 0.00 | 71 | 1029.3 |
| 20260901140356 | 17 | 50 | 0.0 | 1.6 | 0.00 | 0.00 | 0.00 | 70 | 1029.4 |
| 20260901135850 | 17 | 50 | 0.0 | 0.0 | 0.00 | 0.00 | 0.00 | 73 | 1029.5 |
| 20260901135346 | 16 | 50 | 0.0 | 0.0 | 0.00 | 0.00 | 0.00 | 71 | 1029.5 |
| 20260901134841 | 16 | 50 | 0.0 | 1.6 | 0.00 | 0.00 | 0.00 | 73 | 1029.4 |
| 20260901134337 | 16 | 50 | 0.0 | 0.0 | 0.00 | 0.00 | 0.00 | 77 | 1029.5 |
| 20260901133831 | 16 | 50 | 0.0 | 0.0 | 0.00 | 0.00 | 0.00 | 80 | 1029.4 |
| 20260901133330 | 16 | 50 | 0.0 | 0.0 | 0.00 | 0.00 | 0.00 | 80 | 1029.6 |
| 20260901132829 | 15 | 50 | 0.0 | 0.0 | 0.00 | 0.00 | 0.00 | 80 | 1029.5 |
| 20260901132323 | 15 | 50 | 0.0 | 0.0 | 0.00 | 0.00 | 0.00 | 80 | 1029.6 |
| 20260901131818 | 15 | 50 | 0.0 | 0.0 | 0.00 | 0.00 | 0.00 | 81 | 1029.6 |
| 20260901131317 | 15 | 50 | 0.0 | 0.0 | 0.00 | 0.00 | 0.00 | 83 | 1029.6 |
| 20260901130812 | 15 | 50 | 0.0 | 0.0 | 0.00 | 0.00 | 0.00 | 82 | 1029.6 |
| 20260901130307 | 15 | 50 | 0.0 | 0.0 | 0.00 | 0.00 | 0.00 | 84 | 1029.6 |
| 20260901125804 | 15 | 50 | 0.0 | 0.0 | 0.00 | 0.00 | 0.00 | 83 | 1029.7 |
| 20260901125259 | 15 | 50 | 0.0 | 0.0 | 0.00 | 0.00 | 0.00 | 84 | 1029.5 |
| 20260901124754 | 14 | 50 | 0.0 | 0.0 | 0.00 | 0.00 | 0.00 | 85 | 1029.8 |
| 20260901124249 | 15 | 50 | 0.0 | 0.0 | 0.00 | 0.00 | 0.00 | 86 | 1029.7 |
| 20260901123748 | 14 | 50 | 0.0 | 0.0 | 0.00 | 0.00 | 0.00 | 87 | 1029.7 |
| 20260901123243 | 14 | 50 | 0.0 | 0.0 | 0.00 | 0.00 | 0.00 | 87 | 1029.9 |
| 20260901122742 | 14 | 50 | 0.0 | 0.0 | 0.00 | 0.00 | 0.00 | 89 | 1029.8 |
| 20260901122236 | 13 | 50 | 0.0 | 0.0 | 0.00 | 0.00 | 0.00 | 89 | 1029.9 |
| 20260901121730 | 13 | 50 | 0.0 | 0.0 | 0.00 | 0.00 | 0.00 | 89 | 1029.7 |
| 20260901121226 | 13 | 50 | 0.0 | 0.0 | 0.00 | 0.00 | 0.00 | 90 | 1029.4 |
| 20260901120725 | 13 | 50 | 0.0 | 0.0 | 0.00 | 0.00 | 0.00 | 91 | 1029.4 |
| 20260901120220 | 13 | 50 | 0.0 | 0.0 | 0.00 | 0.00 | 0.00 | 91 | 1029.4 |
| 20260901115715 | 13 | 50 | 0.0 | 0.0 | 0.00 | 0.00 | 0.00 | 92 | 1029.5 |
| 20260901115212 | 12 | 50 | 0.0 | 0.0 | 0.00 | 0.00 | 0.00 | 93 | 1029.6 |
| 20260901114709 | 12 | 50 | 0.0 | 0.0 | 0.00 | 0.00 | 0.00 | 94 | 1029.7 |
| 20260901114208 | 12 | 50 | 0.0 | 0.0 | 0.00 | 0.00 | 0.00 | 94 | 1029.5 |
| 20260901113702 | 12 | 50 | 0.0 | 0.0 | 0.00 | 0.00 | 0.00 | 94 | 1029.4 |
| 20260901113157 | 12 | 50 | 0.0 | 0.0 | 0.00 | 0.00 | 0.00 | 94 | 1029.3 |
| 20260901112656 | 12 | 50 | 0.0 | 0.0 | 0.00 | 0.00 | 0.00 | 94 | 1029.4 |
| 20260901112150 | 12 | 50 | 0.0 | 0.0 | 0.00 | 0.00 | 0.00 | 94 | 1029.5 |
| 20260901111649 | 12 | 50 | 0.0 | 0.0 | 0.00 | 0.00 | 0.00 | 94 | 1029.3 |
| 20260901111144 | 12 | 50 | 0.0 | 0.0 | 0.00 | 0.00 | 0.00 | 94 | 1029.3 |
| 20260901110639 | 12 | 50 | 0.0 | 0.0 | 0.00 | 0.00 | 0.00 | 94 | 1028.9 |
| 20260901110134 | 12 | 50 | 0.0 | 0.0 | 0.00 | 0.00 | 0.00 | 94 | 1029.0 |
| 20260901105631 | 12 | 50 | 0.0 | 0.0 | 0.00 | 0.00 | 0.00 | 94 | 1029.0 |
| 20260901105129 | 12 | 50 | 0.0 | 0.0 | 0.00 | 0.00 | 0.00 | 94 | 1029.1 |
| 20260901104626 | 12 | 50 | 0.0 | 0.0 | 0.00 | 0.00 | 0.00 | 94 | 1029.2 |
| 20260901104121 | 12 | 50 | 0.0 | 0.0 | 0.00 | 0.00 | 0.00 | 94 | 1028.9 |
| 20260901103615 | 11 | 50 | 0.0 | 0.0 | 0.00 | 0.00 | 0.00 | 94 | 1029.0 |
| 20260901103110 | 11 | 50 | 0.0 | 0.0 | 0.00 | 0.00 | 0.00 | 94 | 1028.9 |
| 20260901102604 | 11 | 50 | 0.0 | 0.0 | 0.00 | 0.00 | 0.00 | 94 | 1028.7 |
| 20260901102059 | 11 | 50 | 0.0 | 0.0 | 0.00 | 0.00 | 0.00 | 94 | 1028.6 |
| 20260901101555 | 11 | 50 | 0.0 | 0.0 | 0.00 | 0.00 | 0.00 | 94 | 1029.0 |
| 20260901101054 | 11 | 50 | 0.0 | 0.0 | 0.00 | 0.00 | 0.00 | 94 | 1028.9 |
| 20260901100549 | 11 | 50 | 0.0 | 0.0 | 0.00 | 0.00 | 0.00 | 94 | 1028.7 |
| 20260901100048 | 11 | 50 | 0.0 | 0.0 | 0.00 | 0.00 | 0.00 | 94 | 1028.5 |
| 20260901095547 | 11 | 50 | 0.0 | 0.0 | 0.00 | 0.00 | 0.00 | 94 | 1028.6 |
| 20260901095044 | 11 | 50 | 0.0 | 0.0 | 0.00 | 0.00 | 0.00 | 94 | 1028.8 |
| 20260901094540 | 11 | 50 | 0.0 | 0.0 | 0.00 | 0.00 | 0.00 | 94 | 1028.9 |
| 20260901094039 | 11 | 50 | 0.0 | 0.0 | 0.00 | 0.00 | 0.00 | 94 | 1028.6 |
| 20260901093534 | 11 | 50 | 0.0 | 0.0 | 0.00 | 0.00 | 0.00 | 94 | 1029.0 |
| 20260901093029 | 11 | 50 | 0.0 | 0.0 | 0.00 | 0.00 | 0.00 | 94 | 1028.6 |
| 20260901092525 | 11 | 50 | 0.0 | 0.0 | 0.00 | 0.00 | 0.00 | 94 | 1028.7 |
| 20260901092021 | 11 | 50 | 0.0 | 0.0 | 0.00 | 0.00 | 0.00 | 94 | 1028.8 |
| 20260901091516 | 11 | 50 | 0.0 | 0.0 | 0.00 | 0.00 | 0.00 | 94 | 1028.8 |
| 20260901091015 | 11 | 50 | 0.0 | 0.0 | 0.00 | 0.00 | 0.00 | 94 | 1028.8 |
| 20260901090510 | 11 | 50 | 0.0 | 0.0 | 0.00 | 0.00 | 0.00 | 94 | 1028.8 |
| 20260901090006 | 11 | 50 | 0.0 | 0.0 | 0.00 | 0.00 | 0.00 | 94 | 1028.7 |
| 20260901085501 | 11 | 50 | 0.0 | 0.0 | 0.00 | 0.00 | 0.00 | 94 | 1028.9 |
| 20260901084957 | 11 | 50 | 0.0 | 0.0 | 0.00 | 0.00 | 0.00 | 94 | 1028.5 |
| 20260901084453 | 11 | 50 | 0.0 | 0.0 | 0.00 | 0.00 | 0.00 | 94 | 1028.8 |
| 20260901083948 | 11 | 50 | 0.0 | 0.0 | 0.00 | 0.00 | 0.00 | 94 | 1029.0 |
| 20260901083443 | 11 | 50 | 0.0 | 0.0 | 0.00 | 0.00 | 0.00 | 94 | 1028.9 |
| 20260901082941 | 11 | 50 | 0.0 | 0.0 | 0.00 | 0.00 | 0.00 | 94 | 1029.1 |
| 20260901082436 | 11 | 50 | 0.0 | 0.0 | 0.00 | 0.00 | 0.00 | 94 | 1028.7 |
| 20260901081931 | 11 | 50 | 0.0 | 0.0 | 0.00 | 0.00 | 0.00 | 94 | 1028.6 |
| 20260901081425 | 11 | 50 | 0.0 | 0.0 | 0.00 | 0.00 | 0.00 | 94 | 1028.6 |
| 20260901080921 | 11 | 50 | 0.0 | 0.0 | 0.00 | 0.00 | 0.00 | 94 | 1028.9 |
| 20260901080415 | 11 | 50 | 0.0 | 0.0 | 0.00 | 0.00 | 0.00 | 94 | 1028.8 |
| 20260901075910 | 11 | 50 | 0.0 | 0.0 | 0.00 | 0.00 | 0.00 | 94 | 1028.6 |
| 20260901075405 | 11 | 50 | 0.0 | 0.0 | 0.00 | 0.00 | 0.00 | 94 | 1028.9 |
| 20260901074904 | 11 | 50 | 0.0 | 0.0 | 0.00 | 0.00 | 0.00 | 94 | 1028.9 |
| 20260901074359 | 11 | 50 | 0.0 | 0.0 | 0.00 | 0.00 | 0.00 | 94 | 1028.9 |
| 20260901073855 | 11 | 50 | 0.0 | 0.0 | 0.00 | 0.00 | 0.00 | 94 | 1028.7 |
| 20260901073350 | 11 | 50 | 0.0 | 0.0 | 0.00 | 0.00 | 0.00 | 94 | 1029.0 |
| 20260901072846 | 11 | 50 | 0.0 | 0.0 | 0.00 | 0.00 | 0.00 | 94 | 1028.8 |
| 20260901072346 | 11 | 50 | 0.0 | 0.0 | 0.00 | 0.00 | 0.00 | 94 | 1028.8 |
| 20260901071841 | 11 | 50 | 0.0 | 0.0 | 0.00 | 0.00 | 0.00 | 94 | 1029.0 |
| 20260901071339 | 11 | 50 | 0.0 | 0.0 | 0.00 | 0.00 | 0.00 | 94 | 1028.8 |
| 20260901070838 | 11 | 50 | 0.0 | 0.0 | 0.00 | 0.00 | 0.00 | 94 | 1028.9 |
| 20260901070335 | 11 | 50 | 0.0 | 0.0 | 0.00 | 0.00 | 0.00 | 94 | 1029.3 |
| 20260901065833 | 11 | 50 | 0.0 | 0.0 | 0.00 | 0.00 | 0.00 | 94 | 1029.0 |
| 20260901065329 | 11 | 50 | 0.0 | 0.0 | 0.00 | 0.00 | 0.00 | 94 | 1029.1 |
| 20260901064824 | 11 | 50 | 0.0 | 0.0 | 0.00 | 0.00 | 0.00 | 94 | 1029.0 |
| 20260901064321 | 11 | 50 | 0.0 | 0.0 | 0.00 | 0.00 | 0.00 | 94 | 1028.9 |
| 20260901063818 | 11 | 50 | 0.0 | 0.0 | 0.00 | 0.00 | 0.00 | 94 | 1028.9 |
| 20260901063314 | 11 | 50 | 0.0 | 0.0 | 0.00 | 0.00 | 0.00 | 94 | 1028.9 |
| 20260901062810 | 11 | 50 | 0.0 | 0.0 | 0.00 | 0.00 | 0.00 | 94 | 1029.2 |
| 20260901062309 | 11 | 50 | 0.0 | 0.0 | 0.00 | 0.00 | 0.00 | 94 | 1028.9 |
| 20260901061801 | 11 | 50 | 0.0 | 0.0 | 0.00 | 0.00 | 0.00 | 94 | 1028.8 |
| 20260901061300 | 11 | 50 | 0.0 | 0.0 | 0.00 | 0.00 | 0.00 | 94 | 1028.9 |
| 20260901060755 | 11 | 50 | 0.0 | 0.0 | 0.00 | 0.00 | 0.00 | 94 | 1029.0 |
| 20260901060251 | 11 | 50 | 0.0 | 0.0 | 0.00 | 0.00 | 0.00 | 94 | 1029.3 |
| 20260901055746 | 11 | 50 | 0.0 | 0.0 | 0.00 | 0.00 | 0.00 | 93 | 1029.0 |
| 20260901055243 | 11 | 50 | 0.0 | 0.0 | 0.00 | 0.00 | 0.00 | 93 | 1029.1 |
| 20260901054739 | 11 | 50 | 0.0 | 0.0 | 0.00 | 0.00 | 0.00 | 93 | 1029.2 |
| 20260901054235 | 11 | 50 | 0.0 | 0.0 | 0.00 | 0.00 | 0.00 | 93 | 1029.1 |
| 20260901053731 | 11 | 50 | 0.0 | 0.0 | 0.00 | 0.00 | 0.00 | 93 | 1029.3 |
| 20260901053226 | 11 | 50 | 0.0 | 0.0 | 0.00 | 0.00 | 0.00 | 93 | 1029.3 |
| 20260901052722 | 11 | 50 | 0.0 | 0.0 | 0.00 | 0.00 | 0.00 | 93 | 1029.3 |
| 20260901052218 | 11 | 50 | 0.0 | 0.0 | 0.00 | 0.00 | 0.00 | 93 | 1029.4 |
| 20260901051716 | 11 | 50 | 0.0 | 0.0 | 0.00 | 0.00 | 0.00 | 93 | 1029.3 |
| 20260901051211 | 11 | 50 | 0.0 | 0.0 | 0.00 | 0.00 | 0.00 | 93 | 1029.0 |
| 20260901050706 | 11 | 50 | 0.0 | 0.0 | 0.00 | 0.00 | 0.00 | 93 | 1029.1 |
| 20260901050201 | 11 | 50 | 0.0 | 0.0 | 0.00 | 0.00 | 0.00 | 93 | 1029.0 |
| 20260901045656 | 11 | 50 | 0.0 | 0.0 | 0.00 | 0.00 | 0.00 | 93 | 1029.2 |
| 20260901045151 | 11 | 50 | 0.0 | 0.0 | 0.00 | 0.00 | 0.00 | 93 | 1029.3 |
| 20260901044646 | 11 | 50 | 0.0 | 0.0 | 0.00 | 0.00 | 0.00 | 93 | 1029.2 |
| 20260901044143 | 11 | 50 | 0.0 | 0.0 | 0.00 | 0.00 | 0.00 | 93 | 1029.0 |
| 20260901043638 | 11 | 50 | 0.0 | 0.0 | 0.00 | 0.00 | 0.00 | 93 | 1029.2 |
| 20260901043134 | 11 | 50 | 0.0 | 0.0 | 0.00 | 0.00 | 0.00 | 93 | 1029.1 |
| 20260901042633 | 11 | 50 | 0.0 | 0.0 | 0.00 | 0.00 | 0.00 | 93 | 1028.8 |
| 20260901042128 | 11 | 50 | 0.0 | 0.0 | 0.00 | 0.00 | 0.00 | 93 | 1029.0 |
| 20260901041624 | 11 | 50 | 0.0 | 0.0 | 0.00 | 0.00 | 0.00 | 93 | 1029.1 |
| 20260901041119 | 12 | 50 | 0.0 | 0.0 | 0.00 | 0.00 | 0.00 | 93 | 1028.9 |
| 20260901040618 | 12 | 50 | 0.0 | 0.0 | 0.00 | 0.00 | 0.00 | 93 | 1028.9 |
| 20260901040112 | 12 | 50 | 0.0 | 0.0 | 0.00 | 0.00 | 0.00 | 93 | 1029.0 |
| 20260901035610 | 12 | 50 | 0.0 | 0.0 | 0.00 | 0.00 | 0.00 | 92 | 1028.8 |
| 20260901035109 | 12 | 50 | 0.0 | 0.0 | 0.00 | 0.00 | 0.00 | 92 | 1028.9 |
| 20260901034609 | 12 | 50 | 0.0 | 0.0 | 0.00 | 0.00 | 0.00 | 92 | 1029.0 |
| 20260901034104 | 12 | 50 | 0.0 | 0.0 | 0.00 | 0.00 | 0.00 | 92 | 1029.1 |
| 20260901033603 | 12 | 50 | 0.0 | 0.0 | 0.00 | 0.00 | 0.00 | 92 | 1029.1 |
| 20260901033057 | 12 | 50 | 0.0 | 0.0 | 0.00 | 0.00 | 0.00 | 92 | 1028.8 |
| 20260901032556 | 12 | 50 | 0.0 | 0.0 | 0.00 | 0.00 | 0.00 | 92 | 1029.0 |
| 20260901032051 | 12 | 50 | 0.0 | 0.0 | 0.00 | 0.00 | 0.00 | 91 | 1029.0 |
| 20260901031546 | 12 | 50 | 0.0 | 0.0 | 0.00 | 0.00 | 0.00 | 91 | 1029.0 |
| 20260901031042 | 12 | 50 | 0.0 | 0.0 | 0.00 | 0.00 | 0.00 | 91 | 1029.1 |
| 20260901030536 | 12 | 50 | 0.0 | 0.0 | 0.00 | 0.00 | 0.00 | 91 | 1029.0 |
| 20260901030036 | 12 | 50 | 0.0 | 0.0 | 0.00 | 0.00 | 0.00 | 90 | 1028.9 |
| 20260901025530 | 12 | 50 | 0.0 | 0.0 | 0.00 | 0.00 | 0.00 | 90 | 1028.9 |
| 20260901025025 | 12 | 50 | 0.0 | 0.0 | 0.00 | 0.00 | 0.00 | 90 | 1029.3 |
| 20260901024520 | 12 | 50 | 0.0 | 0.0 | 0.00 | 0.00 | 0.00 | 90 | 1029.0 |
| 20260901024019 | 12 | 50 | 0.0 | 0.0 | 0.00 | 0.00 | 0.00 | 90 | 1029.2 |
| 20260901023513 | 12 | 50 | 0.0 | 0.0 | 0.00 | 0.00 | 0.00 | 89 | 1029.4 |
| 20260901023008 | 13 | 50 | 0.0 | 0.0 | 0.00 | 0.00 | 0.00 | 89 | 1029.1 |
| 20260901022503 | 13 | 50 | 0.0 | 0.0 | 0.00 | 0.00 | 0.00 | 89 | 1029.1 |
| 20260901021958 | 13 | 50 | 0.0 | 0.0 | 0.00 | 0.00 | 0.00 | 89 | 1029.1 |
| 20260901021454 | 13 | 50 | 0.0 | 0.0 | 0.00 | 0.00 | 0.00 | 88 | 1028.8 |
| 20260901020949 | 13 | 50 | 0.0 | 0.0 | 0.00 | 0.00 | 0.00 | 88 | 1029.1 |
| 20260901020444 | 13 | 50 | 0.0 | 0.0 | 0.00 | 0.00 | 0.00 | 88 | 1029.2 |
| 20260901015943 | 13 | 50 | 0.0 | 0.0 | 0.00 | 0.00 | 0.00 | 87 | 1029.0 |
| 20260901015440 | 13 | 50 | 0.0 | 0.0 | 0.00 | 0.00 | 0.00 | 87 | 1029.0 |
| 20260901014939 | 13 | 50 | 0.0 | 0.0 | 0.00 | 0.00 | 0.00 | 87 | 1029.2 |
| 20260901014436 | 13 | 50 | 0.0 | 0.0 | 0.00 | 0.00 | 0.00 | 86 | 1029.2 |
| 20260901013931 | 13 | 50 | 0.0 | 0.0 | 0.00 | 0.00 | 0.00 | 86 | 1029.0 |
| 20260901013426 | 14 | 50 | 0.0 | 0.0 | 0.00 | 0.00 | 0.00 | 85 | 1029.0 |
| 20260901012922 | 14 | 50 | 0.0 | 0.0 | 0.00 | 0.00 | 0.00 | 85 | 1029.1 |
| 20260901012416 | 14 | 50 | 0.0 | 0.0 | 0.00 | 0.00 | 0.00 | 84 | 1028.9 |
| 20260901011912 | 14 | 50 | 0.0 | 0.0 | 0.00 | 0.00 | 0.00 | 84 | 1028.7 |
| 20260901011408 | 15 | 50 | 0.0 | 0.0 | 0.00 | 0.00 | 0.00 | 83 | 1029.1 |
| 20260901010906 | 15 | 50 | 0.0 | 0.0 | 0.00 | 0.00 | 0.00 | 83 | 1029.1 |
| 20260901010401 | 15 | 50 | 0.0 | 0.0 | 0.00 | 0.00 | 0.00 | 81 | 1028.7 |
| 20260901005900 | 15 | 50 | 0.0 | 0.0 | 0.00 | 0.00 | 0.00 | 81 | 1028.8 |
| 20260901005355 | 15 | 50 | 0.0 | 0.0 | 0.00 | 0.00 | 0.00 | 80 | 1028.8 |
| 20260901004850 | 15 | 50 | 0.0 | 0.0 | 0.00 | 0.00 | 0.00 | 81 | 1028.9 |
| 20260901004349 | 15 | 50 | 0.0 | 0.0 | 0.00 | 0.00 | 0.00 | 80 | 1028.9 |
| 20260901003844 | 15 | 50 | 0.0 | 0.0 | 0.00 | 0.00 | 0.00 | 80 | 1028.8 |
| 20260901003339 | 15 | 50 | 0.0 | 0.0 | 0.00 | 0.00 | 0.00 | 79 | 1028.9 |
| 20260901002838 | 15 | 50 | 0.0 | 0.0 | 0.00 | 0.00 | 0.00 | 79 | 1028.9 |
| 20260901002337 | 16 | 50 | 0.0 | 0.0 | 0.00 | 0.00 | 0.00 | 78 | 1028.7 |
| 20260901001832 | 16 | 50 | 0.0 | 0.0 | 0.00 | 0.00 | 0.00 | 78 | 1028.9 |
| 20260901001327 | 16 | 50 | 0.0 | 0.0 | 0.00 | 0.00 | 0.00 | 77 | 1028.8 |
| 20260901000823 | 16 | 50 | 0.0 | 0.0 | 0.00 | 0.00 | 0.00 | 76 | 1028.6 |
| 20260901000321 | 16 | 50 | 0.0 | 0.0 | 0.00 | 0.00 | 0.00 | 76 | 1028.8 |
| 20260831235816 | 16 | 50 | 0.0 | 0.0 | 0.00 | 0.00 | 0.00 | 76 | 1028.5 |
| 20260831235313 | 16 | 50 | 0.0 | 0.0 | 0.00 | 0.00 | 0.00 | 75 | 1028.5 |
| 20260831234808 | 17 | 50 | 0.0 | 0.0 | 0.00 | 0.00 | 0.00 | 75 | 1028.5 |
| 20260831234307 | 17 | 50 | 0.0 | 0.0 | 0.00 | 0.00 | 0.00 | 74 | 1028.4 |
| 20260831233803 | 17 | 50 | 0.0 | 0.0 | 0.00 | 0.00 | 0.00 | 73 | 1028.3 |
| 20260831233258 | 17 | 50 | 0.0 | 0.0 | 0.00 | 0.00 | 0.00 | 73 | 1028.6 |
| 20260831232753 | 17 | 50 | 0.0 | 0.0 | 0.00 | 0.00 | 0.00 | 72 | 1028.6 |
| 20260831232249 | 17 | 50 | 0.0 | 0.0 | 0.00 | 0.00 | 0.00 | 71 | 1028.8 |
| 20260831231739 | 18 | 50 | 0.0 | 0.0 | 0.00 | 0.00 | 0.00 | 71 | 1028.8 |
| 20260831231235 | 18 | 50 | 0.0 | 0.0 | 0.00 | 0.00 | 0.00 | 70 | 1028.6 |
| 20260831230730 | 18 | 50 | 0.0 | 0.0 | 0.00 | 0.00 | 0.00 | 69 | 1028.6 |
| 20260831230225 | 18 | 50 | 0.0 | 0.0 | 0.00 | 0.00 | 0.00 | 69 | 1028.7 |
| 20260831225724 | 19 | 50 | 0.0 | 0.0 | 0.00 | 0.00 | 0.00 | 68 | 1028.8 |